Location: Lake Crest
(37.6062°N, 88.9176°W)
Time: 03:21:06
(UTC+00:00)

Cosmos 1844 Rocket - Pass Details

Date: 15 December 2019
Orbit: 825 x 844 km, 71.0° (Epoch: 27 January)

Event Time Altitude Azimuth Distance (km) Brightness Sun altitude
Rises 10:48:02 0° 188° (S) 3,355 5.9 -25.9°
Reaches altitude 10° 10:50:30 10° 183° (S) 2,423 5.1 -25.5°
Maximum altitude 10:55:53 54° 107° (ESE) 993 3.3 -24.4°
Drops below altitude 10° 11:01:18 10° 31° (NNE) 2,431 5.3 -23.4°
Sets 11:03:46 0° 28° (NNE) 3,367 6.0 -22.9°
